COSMOS 2456 (730)

Last updated on June 24, 2019, 3:41 a.m. UTC

1 36111U 09070A   19173.58522734  .00000068  00000-0  00000-0 0  9999
2 36111  64.2019 158.4399 0006568 302.9212 139.2020  2.13102886 74097
UTC
Height (km)
Latitude
Longitude
Inclination
Orbital Period
UTC large
Height (km)
Speed (km/s)
/
Latitude / Longitude
Inclination (degrees)
Orbital Period (minutes)
Azimuth
Elevation
Range (km)
Doppler Factor
iOS Compass Heading
iOS Angle

Next 30 passes for location: Hong Kong

Rise time Rise Azimuth (degrees) Set time Set Azimuth (degrees) Duration Max altitude (degrees)

No matching passes for this satellites